Location: Most
(50.5133°N, 13.6207°E)
Time: 03:08:23
(UTC+01:00)

ZACube-1 - Pass Details

Date: 05 December 2021
Orbit: 582 x 665 km, 97.6° (Epoch: 24 January)

Event Time Altitude Azimuth Distance (km) Brightness Sun altitude
Rises 05:49:33 0° 3° (N) 2,999 ? -18.1°
Reaches altitude 10° 05:52:08 10° 350° (N) 2,090 ? -17.7°
Enters shadow 05:53:02 14° 341° (NNW) 1,822 ? -17.6°
